GW4024 Weather Reports


time (UTC)temp
C
wind
direction
speed
KPH
gust
KPH
rain 1hr
cm
rain 24hr
cm
rain mn
cm
humidity
%
barometer
mb
20260510093109 10 173 1.6 9.7 0.00 0.89 0.00 94 1009.6
20260510091548 10 181 3.2 9.7 0.00 0.89 0.00 94 1009.4
20260510090047 10 129 6.4 12.9 0.00 0.89 0.00 94 1009.4
20260510084544 10 166 1.6 4.8 0.00 0.89 0.00 94 1009.2
20260510083044 10 162 1.6 6.4 0.00 0.89 0.00 94 1009.4
20260510081543 11 161 1.6 8.0 0.00 0.89 0.00 93 1009.3
20260510080042 11 123 3.2 6.4 0.00 0.89 0.00 94 1009.5
20260510074543 11 192 3.2 12.9 0.00 0.89 0.00 93 1009.6
20260510073044 11 90 4.8 14.5 0.00 0.89 0.00 93 1008.9
20260510071547 11 144 3.2 11.3 0.00 0.89 0.00 93 1009.4
20260510070035 11 141 1.6 6.4 0.00 0.89 0.00 93 1009.5
20260510064534 11 197 0.0 1.6 0.00 0.89 0.00 93 1010.5
20260510063033 11 197 0.0 6.4 0.00 0.89 0.00 93 1010.1
20260510061531 11 176 4.8 8.0 0.00 0.89 0.00 93 1010.0
20260510060030 11 273 1.6 12.9 0.00 0.89 0.00 92 1009.9
20260510054529 11 192 1.6 6.4 0.00 0.89 0.00 92 1009.8
20260510053047 11 163 3.2 11.3 0.00 0.89 0.00 92 1009.6
20260510051527 11 174 4.8 11.3 0.00 0.89 0.00 92 1009.3
20260510050027 11 181 6.4 12.9 0.00 0.89 0.00 92 1009.4
20260510044526 11 186 6.4 14.5 0.00 0.89 0.00 92 1009.4
20260510043038 11 168 11.3 22.5 0.00 0.89 0.00 92 1009.6
20260510041526 11 207 3.2 12.9 0.00 0.89 0.00 92 1009.7
20260510040033 11 180 1.6 8.0 0.00 0.89 0.89 92 1009.6
20260510034519 11 159 6.4 9.7 0.00 0.89 0.89 92 1009.7
20260510033017 11 153 1.6 9.7 0.00 0.89 0.89 92 1009.7
20260510031522 11 161 1.6 14.5 0.00 0.89 0.89 91 1009.5
20260510030017 11 169 1.6 14.5 0.00 0.89 0.89 91 1009.6
20260510024517 11 155 0.0 11.3 0.00 0.89 0.89 91 1009.6
20260510023017 11 111 3.2 11.3 0.00 0.89 0.89 91 1009.7
20260510021530 11 156 3.2 8.0 0.00 0.89 0.89 91 1009.7
20260510020015 12 189 4.8 16.1 0.00 0.89 0.89 91 1009.7
20260510014516 11 194 6.4 16.1 0.00 0.89 0.89 91 1009.8
20260510013022 12 154 3.2 8.0 0.00 0.89 0.89 91 1009.4
20260510011513 12 168 6.4 9.7 0.00 0.89 0.89 91 1009.6
20260510010012 12 157 6.4 16.1 0.00 0.89 0.89 91 1009.6
20260510004517 12 184 4.8 14.5 0.00 0.89 0.89 90 1009.4
20260510003011 12 175 6.4 14.5 0.00 0.89 0.89 90 1009.3
20260510001512 12 160 3.2 9.7 0.00 0.89 0.89 90 1009.3
20260510000011 12 169 0.0 8.0 0.00 0.89 0.89 90 1008.9
20260509234511 12 173 1.6 9.7 0.00 0.89 0.89 90 1008.7
20260509233010 12 165 4.8 11.3 0.00 0.89 0.89 90 1008.8
20260509231509 12 155 6.4 20.9 0.00 0.89 0.89 90 1008.5
20260509230010 12 128 6.4 16.1 0.00 0.89 0.89 90 1008.4
20260509224509 12 140 4.8 14.5 0.00 0.89 0.89 91 1008.4
20260509223011 12 97 4.8 14.5 0.00 0.89 0.89 91 1008.5
20260509221506 12 164 6.4 12.9 0.00 0.89 0.89 92 1008.6
20260509220015 12 130 1.6 11.3 0.00 0.89 0.89 93 1008.6
20260509214504 12 143 4.8 12.9 0.00 0.89 0.89 93 1008.9
20260509213003 11 164 6.4 14.5 0.00 0.89 0.89 93 1008.9
20260509211501 11 142 1.6 9.7 0.00 0.89 0.89 94 1008.9
20260509210109 11 125 1.6 11.3 0.00 0.89 0.89 94 1009.0
20260509204558 11 175 4.8 16.1 0.00 0.89 0.89 95 1009.2
20260509203115 11 177 8.0 14.5 0.03 0.89 0.89 95 1009.3
20260509201557 10 190 4.8 8.0 0.03 0.89 0.89 95 1009.5
20260509200055 10 144 1.6 8.0 0.03 0.89 0.89 95 1009.7
20260509194552 10 157 0.0 11.3 0.03 0.89 0.89 95 1009.9
20260509193056 10 177 0.0 8.0 0.00 0.86 0.86 94 1010.1
20260509191558 10 180 1.6 9.7 0.00 0.86 0.86 94 1010.3
20260509190053 10 165 6.4 12.9 0.03 0.86 0.86 94 1010.4
20260509184556 9 181 3.2 14.5 0.03 0.86 0.86 94 1010.4
20260509183052 9 155 8.0 14.5 0.05 0.86 0.86 94 1010.5
20260509181542 9 169 0.0 11.3 0.05 0.86 0.86 94 1010.7
20260509180042 8 146 4.8 9.7 0.05 0.84 0.84 94 1010.8
20260509174559 8 148 3.2 11.3 0.08 0.84 0.84 94 1010.8
20260509173048 8 153 4.8 16.1 0.08 0.81 0.81 94 1010.9
20260509171538 8 169 4.8 11.3 0.10 0.81 0.81 94 1011.1
20260509170038 8 157 4.8 9.7 0.10 0.79 0.79 94 1011.1
20260509164536 8 134 4.8 12.9 0.08 0.76 0.76 94 1011.2
20260509163040 8 153 1.6 14.5 0.10 0.71 0.71 94 1011.4
20260509161532 8 159 4.8 11.3 0.10 0.71 0.71 94 1011.7
20260509160031 7 130 6.4 12.9 0.15 0.69 0.69 94 1011.9
20260509154529 7 118 1.6 14.5 0.15 0.66 0.66 94 1012.4
20260509153039 7 140 3.2 11.3 0.18 0.64 0.64 94 1012.6
20260509151526 7 150 4.8 14.5 0.20 0.61 0.61 94 1012.8
20260509150026 7 130 3.2 11.3 0.20 0.53 0.53 94 1012.8
20260509144531 7 181 1.6 14.5 0.20 0.51 0.51 94 1012.8
20260509143024 7 112 3.2 12.9 0.20 0.46 0.46 94 1012.8
20260509141523 7 129 3.2 9.7 0.20 0.41 0.41 93 1012.8
20260509140022 7 133 1.6 9.7 0.18 0.33 0.33 93 1012.8
20260509134522 7 139 0.0 9.7 0.18 0.30 0.30 93 1012.6
20260509133021 7 142 0.0 8.0 0.15 0.25 0.25 93 1012.7
20260509131519 7 171 0.0 3.2 0.15 0.20 0.20 92 1012.8
20260509130030 7 148 0.0 6.4 0.10 0.15 0.15 92 1012.8
20260509124520 7 119 0.0 1.6 0.10 0.13 0.13 91 1012.8
20260509123018 6 169 1.6 6.4 0.10 0.10 0.10 91 1012.9
20260509121523 6 169 0.0 3.2 0.05 0.05 0.05 90 1012.9
20260509120014 6 134 1.6 8.0 0.05 0.05 0.05 90 1013.0
20260509114514 6 143 3.2 11.3 0.03 0.03 0.03 88 1013.2
20260509113014 6 164 8.0 14.5 0.00 0.00 0.00 87 1013.1
20260509111512 6 184 4.8 8.0 0.00 0.00 0.00 86 1013.1
20260509110012 6 163 0.0 3.2 0.00 0.00 0.00 86 1012.9
20260509104611 6 245 0.0 1.6 0.00 0.00 0.00 86 1012.9
20260509103010 5 245 0.0 0.0 0.00 0.00 0.00 87 1012.9
20260509101511 5 245 0.0 0.0 0.00 0.00 0.00 87 1013.1
20260509100007 5 245 0.0 1.6 0.00 0.00 0.00 87 1013.1
20260509094508 5 245 0.0 0.0 0.00 0.00 0.00 86 1012.9